SL-14 DEB, 45271

Orbit data source: Space-Track

SL-14 DEB, 45271 is space debris in LEO originally from a launch on Thu, 15 Aug 1991 UTC launched from the Plesetsk Missile And Space Complex (PKMTR). Debris objects in space refer to the collection of defunct objects orbiting the Earth. Examples of debris include non-operational satellites, rocket bodies, and fragments generated from explosions, collisions, or faulty payload assembly.

Loading next visibility...
Identifier
45271, 1991-056H
Orbit
LEO
Country
Flag of CISCIS
Related business
Manufacturer
Unknown
Mission
Spacecraft
Bus & Motor
Unknown
Mass
Unknown
Launch date (UTC)
1991-08-15 (34 years ago)
Launch vehicle
Unknown
Launch site
Plesetsk Missile And Space Complex (PKMTR)
Object type
Payload
Rocket body
Debris
Shape & HBR
Unknown shape, 0.1 m
Radar Cross Section
Small (<0.1 m²)

Expand to show TLE details & history
Last TLE update: 3 days ago

TLE from 3 days ago
0 SL-14 DEB
1 45271U 91056H   25285.10872937  .00000297  00000-0  85532-3 0  9993
2 45271  82.4343 333.7240 0050625 230.7392 128.9228 13.06829083269437
Epoch: 2025-10-12T02:36Z
TLE epoch observation values (Epoch: 2025-10-12T02:36:34.217Z)
Latitude
0.00004°
Longitude
-86.34916°
Altitude
1,262.578 km
Speed
7.213 km/s
True Right ascension
22h 14m 53s
True Declination
0° 00' 00"
Sunlit
Object was in full shadow at epoch
Visualization orbit readout
Latitude
Unknown
Longitude
Unknown
Altitude
Unknown
Speed
Unknown
Apparent Right ascension
Unknown
Apparent Declination
Unknown
Sunlit
N/A
Visualization observer readout
Local Sidereal Time
23:24:24
Azimuth
Unknown
Elevation
Unknown
Doppler factor
Unknown
Orbital elements
Apogee altitude
1,271.243 km
Perigee altitude
1,194.183 km
Semi-major axis
7,610.85 km
Eccentricity
0.00506
Inclination
82.4343°
RAAN
333.724°
Arg. of periapsis
230.7392°
True anomaly
129.37234°
Mean anomaly
128.9228°
Eccentric anomaly
129.14775°
Mean motion
3.26884 °/min
Orbital period
110.13 mins
BSTAR
0.00085532
Loading maneuver chart data...
Computing Atmospheric mass density...
Loading historical data...
Loading historical data...
Loading historical data...
Loading historical data...
Loading historical data...
Loading historical data...
Loading historical data...

Documentation

Showing up to 5 results
|